Date String (YYYY-MM-DD hh:mm:ss) UTC,Instrument flags,Ambient pressure (hPa),Sample flow (lpm),Bypass flow (lpm),Sample temperature (°C),Ambient temperature (°C),ASC tube jacket temperature (°C),LED temperature (°C),Box temperature (°C),Sample RH (%),Span deviation,Mass concentration (μg/m³),Mass concentration (μg/m³),Mass concentration (μg/m³)
DateTimeUTC,F1_M11,P_M11,Q1_M11,Q2_M11,T1_M11,T2_M11,T3_M11,T4_M11,T5_M11,U1_M11,ZSPAN_M11,X0_M11,X2_M11,X1_M11
2022-11-13 21:00:00,,0819.2,4.99,0.00,24.9,23.7,00.0,33.7,26.9,07.5,0004.4,0016.73,0008.52,0007.62
2022-11-13 21:01:00,,0819.1,5.00,0.00,24.9,23.7,00.0,33.7,26.9,07.5,0003.5,0017.05,0008.59,0007.67
2022-11-13 21:02:00,,0819.1,5.03,0.00,24.9,23.7,00.0,33.7,26.8,07.2,0003.4,0016.80,0008.64,0007.70
2022-11-13 21:03:00,,0819.2,4.99,0.00,24.9,23.7,00.0,33.7,26.8,07.1,0004.1,0017.81,0008.60,0007.66
2022-11-13 21:04:00,,0819.1,5.00,0.00,24.9,23.7,00.0,33.8,26.8,07.1,0004.2,0018.95,0008.46,0007.54
2022-11-13 21:05:00,,0819.1,5.02,0.00,24.9,23.7,00.0,33.7,26.9,07.1,0003.7,0019.19,0008.33,0007.43
2022-11-13 21:06:00,,0819.1,4.99,0.00,25.0,23.8,00.0,33.7,26.9,07.2,0003.7,0019.27,0008.21,0007.35
2022-11-13 21:07:00,,0819.2,4.99,0.00,25.0,23.8,00.0,33.7,26.9,07.2,0003.6,0018.67,0008.04,0007.24
2022-11-13 21:08:00,,0819.1,4.99,0.00,25.0,23.8,00.0,33.7,26.9,07.1,0003.4,0017.30,0007.90,0007.12
2022-11-13 21:09:00,,0819.2,5.00,0.00,25.0,23.8,00.0,33.7,26.9,07.1,0003.1,0016.41,0007.82,0007.03
2022-11-13 21:10:00,,0819.2,5.01,0.00,25.0,23.8,00.0,33.8,26.9,06.8,0003.1,0016.60,0007.72,0006.94
2022-11-13 21:11:00,,0819.1,5.01,0.00,25.0,23.8,00.0,33.8,26.9,06.7,0002.8,0016.67,0007.60,0006.85
2022-11-13 21:12:00,,0819.2,4.99,0.00,25.0,23.8,00.0,33.8,26.9,06.7,0003.7,0016.56,0007.50,0006.75
2022-11-13 21:13:00,,0819.2,4.99,0.00,25.0,23.8,00.0,33.8,26.9,06.8,0003.8,0017.20,0007.41,0006.67
2022-11-13 21:14:00,,0819.2,5.02,0.00,25.0,23.8,00.0,33.8,26.9,06.8,0003.4,0016.31,0007.36,0006.62
2022-11-13 21:15:00,,0819.2,4.99,0.00,25.0,23.8,00.0,33.8,26.9,06.7,0003.0,0016.27,0007.32,0006.58
2022-11-13 21:16:00,,0819.1,4.99,0.00,25.0,23.7,00.0,33.8,26.9,06.7,0003.8,0016.17,0007.27,0006.53
2022-11-13 21:17:00,,0819.1,5.01,0.00,25.0,23.7,00.0,33.8,26.9,06.7,0003.6,0016.70,0007.22,0006.48
2022-11-13 21:18:00,,0819.2,5.00,0.00,25.0,23.7,00.0,33.8,26.9,06.8,0003.6,0016.80,0007.18,0006.44
2022-11-13 21:19:00,,0819.2,4.99,0.00,25.0,23.8,00.0,33.8,26.9,06.9,0003.7,0016.89,0007.14,0006.41
2022-11-13 21:20:00,,0819.2,5.00,0.00,25.0,23.7,00.0,33.8,26.9,06.7,0003.4,0016.71,0007.11,0006.38
2022-11-13 21:21:00,,0819.2,5.01,0.00,25.0,23.6,00.0,33.8,26.9,06.8,0002.3,0016.33,0007.09,0006.35
2022-11-13 21:22:00,,0819.2,5.01,0.00,25.0,23.6,00.0,33.8,26.9,06.8,0002.5,0016.17,0007.05,0006.32
2022-11-13 21:23:00,,0819.2,5.00,0.00,25.0,23.6,00.0,33.8,26.9,06.8,0002.4,0016.63,0007.02,0006.28
2022-11-13 21:24:00,,0819.3,5.00,0.00,25.0,23.6,00.0,33.8,26.9,06.7,0001.9,0015.70,0006.98,0006.25
2022-11-13 21:25:00,,0819.3,5.01,0.00,25.0,23.5,00.0,33.8,26.8,06.7,0001.4,0016.22,0006.98,0006.23
2022-11-13 21:26:00,,0819.3,5.00,0.00,24.9,23.4,00.0,33.8,26.8,06.6,0002.0,0015.49,0006.94,0006.20
2022-11-13 21:27:00,,0819.3,5.01,0.00,24.9,23.3,00.0,33.8,26.8,06.6,0001.2,0014.44,0006.89,0006.18
2022-11-13 21:28:00,,0819.3,5.00,0.00,24.9,23.3,00.0,33.8,26.8,06.7,0001.8,0013.45,0006.86,0006.16
2022-11-13 21:29:00,,0819.3,4.98,0.00,24.9,23.4,00.0,33.7,26.8,06.8,0002.7,0013.11,0006.84,0006.13
2022-11-13 21:30:00,,0819.3,5.01,0.00,24.9,23.3,00.0,33.7,26.7,06.9,0002.3,0013.38,0006.77,0006.07
2022-11-13 21:31:00,,0819.3,5.01,0.00,24.8,23.2,00.0,33.7,26.7,07.0,0001.8,0014.32,0006.76,0006.03
2022-11-13 21:32:00,,0819.3,4.99,0.00,24.8,23.2,00.0,33.7,26.7,07.1,0002.3,0014.57,0006.74,0005.97
2022-11-13 21:33:00,,0819.3,5.00,0.00,24.8,23.1,00.0,33.7,26.6,07.1,0002.1,0014.37,0006.73,0005.94
2022-11-13 21:34:00,,0819.2,5.01,0.00,24.8,23.1,00.0,33.7,26.6,07.1,0001.3,0013.91,0006.71,0005.92
2022-11-13 21:35:00,,0819.3,5.00,0.00,24.8,23.1,00.0,33.7,26.6,07.2,0000.9,0014.00,0006.72,0005.90
2022-11-13 21:36:00,,0819.2,4.99,0.00,24.7,22.9,00.0,33.7,26.6,07.1,0000.9,0013.77,0006.67,0005.86
2022-11-13 21:37:00,,0819.3,5.01,0.00,24.7,22.9,00.0,33.6,26.5,07.3,0001.0,0013.37,0006.64,0005.83
2022-11-13 21:38:00,,0819.3,5.00,0.00,24.7,22.8,00.0,33.6,26.5,07.4,0000.6,0013.40,0006.60,0005.79
2022-11-13 21:39:00,,0819.2,5.00,0.00,24.7,22.8,00.0,33.6,26.5,07.3,0000.1,0013.62,0006.58,0005.74
2022-11-13 21:40:00,,0819.3,5.00,0.00,24.6,22.8,00.0,33.6,26.5,07.4,-000.3,0014.04,0006.53,0005.70
2022-11-13 21:41:00,,0819.3,5.00,0.00,24.6,22.7,00.0,33.6,26.4,07.3,-000.2,0015.18,0006.57,0005.69
2022-11-13 21:42:00,,0819.3,5.00,0.00,24.6,22.7,00.0,33.5,26.4,07.3,-000.0,0015.07,0006.59,0005.66
2022-11-13 21:43:00,,0819.4,4.99,0.00,24.6,22.7,00.0,33.5,26.4,07.3,0000.3,0015.34,0006.56,0005.64
2022-11-13 21:44:00,,0819.4,4.99,0.00,24.5,22.7,00.0,33.5,26.3,07.3,0000.5,0015.74,0006.56,0005.64
2022-11-13 21:45:00,,0819.4,5.01,0.00,24.5,22.7,00.0,33.5,26.3,07.3,0000.5,0015.87,0006.59,0005.63
2022-11-13 21:46:00,,0819.4,5.01,0.00,24.5,22.7,00.0,33.5,26.3,07.3,0000.7,0015.85,0006.59,0005.62
2022-11-13 21:47:00,,0819.5,5.01,0.00,24.5,22.7,00.0,33.4,26.3,07.2,0001.1,0015.92,0006.57,0005.62
2022-11-13 21:48:00,,0819.5,5.00,0.00,24.5,22.7,00.0,33.4,26.3,07.2,0002.4,0015.98,0006.59,0005.61
2022-11-13 21:49:00,,0819.5,4.99,0.00,24.5,22.6,00.0,33.4,26.3,07.2,0002.7,0016.03,0006.60,0005.61
2022-11-13 21:50:00,,0819.5,5.01,0.00,24.4,22.5,00.0,33.4,26.2,07.2,0002.7,0016.09,0006.61,0005.62
2022-11-13 21:51:00,,0819.5,5.01,0.00,24.4,22.5,00.0,33.4,26.2,07.2,0002.5,0016.09,0006.61,0005.61
2022-11-13 21:52:00,,0819.5,4.99,0.00,24.4,22.5,00.0,33.3,26.2,07.2,0001.9,0015.14,0006.57,0005.60
2022-11-13 21:53:00,,0819.5,5.00,0.00,24.4,22.6,00.0,33.3,26.2,07.3,0001.7,0014.49,0006.54,0005.59
2022-11-13 21:54:00,,0819.5,5.01,0.00,24.4,22.5,00.0,33.3,26.2,07.3,0002.3,0014.13,0006.52,0005.59
2022-11-13 21:55:00,,0819.6,5.00,0.00,24.4,22.6,00.0,33.3,26.2,07.4,0002.6,0014.38,0006.51,0005.57
2022-11-13 21:56:00,,0819.6,5.00,0.00,24.3,22.5,00.0,33.3,26.1,07.4,0002.8,0014.19,0006.44,0005.55
2022-11-13 21:57:00,,0819.6,4.98,0.00,24.3,22.5,00.0,33.3,26.1,07.4,0002.3,0014.02,0006.42,0005.54
2022-11-13 21:58:00,,0819.6,5.00,0.00,24.3,22.5,00.0,33.2,26.1,07.4,0002.2,0013.71,0006.47,0005.53
2022-11-13 21:59:00,,0819.6,5.00,0.00,24.3,22.5,00.0,33.2,26.0,07.5,0001.1,0013.64,0006.43,0005.49
